星链-32618 (STARLINK-32618)

导读

STARLINK-32618是美国SpaceX公司星链星座的一员,于2024年11月21日发射入轨,属于Starlink Group部署的卫星。它依托星链星座低轨卫星互联网架构,旨在提供全球高速宽带互联网服务,覆盖偏远地区并支持移动通信等应用,进一步扩充星链星座规模,增强全球卫星网络的服务能力与覆盖范围。

基本信息
目录编号:
62045
目录名称:
STARLINK-32618
国际标识:
2024-216P
轨道中心:
EARTH
卫星名称:
星链-32618
卫星全名:
星链-32618 (STARLINK-32618)
卫星状态:
在轨 (已飞行573 天)
发射日期:
2024-11-21 UTC
国别 :
美国 (US)
星等 :
--
轨道信息
数据来源 国际轨道数据
星历时间: 2026-06-16T18:06:57+0800
1天前
查看轨道信息
半长轴: 6861.148km
偏心率: 0.000429
轨道倾角: 43.008°
近地点辐角 266.133°
升交点赤经 58.881°
平近点角 93.903°
近地点: 480.067km
远地点: 485.955km
周期: 94.266分钟
每日圈数: 15.275929
详细信息
固有亮度:
5
最大亮度:
2.5
卫星平台:
Starlink V1.0
覆盖范围:
全球
运营商:
太空探索技术公司
运营商所在国:
美国
制造商(研发单位):
太空探索技术公司
制造商所在国:
美国
使用方式:
暂无
卫星简介
Starlink 计划是 SpaceX 推出的全球卫星互联网项目,通过发射低轨道卫星,为全球尤其是偏远地区提供高速、低延迟的互联网服务。自 2019 年起,Starlink 已部署数千颗卫星,旨在缩小全球数字鸿沟,推动互联网普及。该项目还为军事、航空等行业提供通信支持,带来广泛经济效益。
2D轨道图
3D轨道图
轨道高度分析图
轨道倾角分析图
轨道综合分析图
查看轨道综合分析图